TimeMST,TemperatureF,Dew PointF,Humidity,Sea Level PressureIn,VisibilityMPH,Wind Direction,Wind SpeedMPH,Gust SpeedMPH,PrecipitationIn,Events,Conditions,WindDirDegrees,DateUTC
12:53 AM,-0.9,-5.1,83,30.27,10.0,Calm,Calm,-,N/A,,Clear,0,2013-02-25 07:53:00
1:53 AM,3.0,-0.9,84,30.25,10.0,Calm,Calm,-,N/A,,Clear,0,2013-02-25 08:53:00
2:53 AM,3.0,-2.0,80,30.26,10.0,Calm,Calm,-,N/A,,Clear,0,2013-02-25 09:53:00
3:53 AM,8.1,3.0,80,30.22,10.0,WSW,12.7,-,N/A,,Clear,240,2013-02-25 10:53:00
4:53 AM,7.0,1.9,80,30.22,10.0,WSW,15.0,-,N/A,,Clear,240,2013-02-25 11:53:00
5:53 AM,10.0,3.0,73,30.23,10.0,WSW,18.4,27.6,N/A,,Clear,240,2013-02-25 12:53:00
6:53 AM,8.1,1.0,73,30.30,10.0,SW,11.5,18.4,N/A,,Clear,230,2013-02-25 13:53:00
7:53 AM,10.0,3.0,73,30.31,10.0,East,3.5,-,N/A,,Clear,90,2013-02-25 14:53:00
8:53 AM,14.0,5.0,67,30.30,10.0,WSW,15.0,21.9,N/A,,Clear,240,2013-02-25 15:53:00
9:53 AM,16.0,6.1,65,30.29,10.0,WSW,12.7,20.7,N/A,,Clear,240,2013-02-25 16:53:00
10:53 AM,19.9,8.1,60,30.22,10.0,WSW,17.3,27.6,N/A,,Clear,240,2013-02-25 17:53:00
11:53 AM,23.0,9.0,55,30.20,10.0,SW,16.1,23.0,N/A,,Clear,230,2013-02-25 18:53:00
12:53 PM,24.1,10.0,55,30.18,10.0,SW,18.4,24.2,N/A,,Clear,230,2013-02-25 19:53:00
1:53 PM,24.1,10.0,55,30.14,10.0,SSW,12.7,-,N/A,,Clear,210,2013-02-25 20:53:00
2:53 PM,25.0,10.9,55,30.11,10.0,SSW,17.3,25.3,N/A,,Clear,210,2013-02-25 21:53:00
3:53 PM,24.1,9.0,53,30.08,10.0,SSW,16.1,-,N/A,,Clear,210,2013-02-25 22:53:00
4:53 PM,21.9,6.1,51,30.08,10.0,SW,12.7,-,N/A,,Clear,220,2013-02-25 23:53:00
5:53 PM,19.9,6.1,55,30.04,10.0,SSW,15.0,20.7,N/A,,Clear,210,2013-02-26 00:53:00
6:53 PM,18.0,6.1,60,30.04,10.0,SSW,11.5,-,N/A,,Clear,210,2013-02-26 01:53:00
7:53 PM,21.0,6.1,53,30.03,10.0,SW,9.2,-,N/A,,Clear,220,2013-02-26 02:53:00
8:53 PM,21.0,7.0,55,30.02,10.0,Calm,Calm,-,N/A,,Clear,0,2013-02-26 03:53:00
9:53 PM,24.1,8.1,51,29.98,10.0,WSW,16.1,-,N/A,,Overcast,250,2013-02-26 04:53:00
10:53 PM,21.0,9.0,60,29.98,10.0,WSW,15.0,-,N/A,,Overcast,240,2013-02-26 05:53:00
11:53 PM,19.9,12.9,74,29.94,6.0,WSW,12.7,23.0,0.00,Snow,Light Snow,240,2013-02-26 06:53:00